GPS BIIF-10 (PRN 08)

Last updated on Mon Sep 21 2026 00:03:20 GMT+0000 (Coordinated Universal Time)

1 40730U 15033A 26262.95529460 .00000028 00000+0 00000+0 0 9992 2 40730 53.9163 263.1722 0117512 30.5847 330.1153 2.00551382 81898
UTC large
Height (km)
Speed (km/s)
/
Latitude / Longitude
Inclination (degrees)
Orbital Period (minutes)
Azimuth
Elevation
Range (km)
Doppler Factor

Next 0 passes for location: London (51.5072 / 0.1276)

No passes found over London.
GPS BIIF-10 (PRN 08)